This demonstration page uses our WeatherBlox Daily Observations layout. Learn more.

Left ArrowRight Arrow

Hourly Observations for February 11, 2018

Temp ( °F °C ) Dew Point ( °F °C ) Humidity (%) Winds ( mph kmh ) Pressure ( in mb ) Visibility ( mi km ) Precip ( " mm )
12:53 am 00:53 Clear 6 -14.4 3 -16.1 87 87 W 5 7 30.23 1024 10 16 0.00 0.00
1:53 am 01:53 Clear 2 -16.7 0 -17.8 91 91 W 5 7 30.21 1023 10 16 0.00 0.00
2:53 am 02:53 Clear 4 -15.6 0 -17.8 83 83 W 6 9 30.21 1023 10 16 0.00 0.00
3:53 am 03:53 Clear 2 -16.7 -2 -18.9 83 83 W 5 7 30.19 1022 10 16 0.00 0.00
4:53 am 04:53 Clear 2 -16.7 -2 -18.9 83 83 W 7 11 30.19 1022 10 16 0.00 0.00
5:53 am 05:53 Clear 4 -15.6 -1 -18.3 80 80 W 9 15 30.18 1022 10 16 0.00 0.00
6:53 am 06:53 Clear -1 -18.3 -5 -20.6 82 82 WNW 10 17 30.20 1023 10 16 0.00 0.00
7:53 am 07:53 Sunny -1 -18.3 -6 -21.1 79 79 WNW 8 13 30.21 1023 10 16 0.00 0.00
8:53 am 08:53 Sunny 1 -17.2 -4 -20 79 79 WNW 10 17 30.23 1024 10 16 0.00 0.00
9:53 am 09:53 Sunny 6 -14.4 -1 -18.3 73 73 W 8 13 30.24 1024 10 16 0.00 0.00
10:53 am 10:53 Sunny 11 -11.7 3 -16.1 70 70 WNW 13 20 30.25 1024 10 16 0.00 0.00
11:53 am 11:53 Sunny 15 -9.4 6 -14.4 67 67 W 8 13 30.24 1024 10 16 0.00 0.00
12:53 pm 12:53 Sunny 19 -7.2 8 -13.3 62 62 W 8 13 30.23 1024 10 16 0.00 0.00
1:53 pm 13:53 Sunny 22 -5.6 9 -12.8 57 57 W 5 7 30.21 1023 10 16 0.00 0.00
2:53 pm 14:53 Sunny 23 -5 11 -11.7 60 60 WSW 6 9 30.21 1023 10 16 0.00 0.00
3:53 pm 15:53 Sunny 23 -5 11 -11.7 60 60 WSW 6 9 30.23 1024 10 16 0.00 0.00
4:53 pm 16:53 Sunny 23 -5 12 -11.1 63 63 WSW 3 6 30.25 1024 10 16 0.00 0.00
5:53 pm 17:53 Sunny 23 -5 11 -11.7 60 60 SSW 6 9 30.26 1025 10 16 0.00 0.00
6:53 pm 18:53 Clear 20 -6.7 11 -11.7 68 68 S 5 7 30.30 1026 10 16 0.00 0.00
7:53 pm 19:53 Clear 20 -6.7 11 -11.7 68 68 S 5 7 30.33 1027 10 16 0.00 0.00
8:53 pm 20:53 Clear 19 -7.2 10 -12.2 68 68 SSE 5 7 30.36 1028 10 16 0.00 0.00
9:53 pm 21:53 Clear 16 -8.9 9 -12.8 74 74 SE 3 6 30.39 1029 10 16 0.00 0.00
10:53 pm 22:53 Clear 13 -10.6 7 -13.9 77 77 SE 6 9 30.42 1030 10 16 0.00 0.00
11:53 pm 23:53 Clear 4 -15.6 0 -17.8 83 83 ENE 5 7 30.44 1031 10 16 0.00 0.00

Powered by AerisWeather